EN

Hourly Weather Kivshovata

Today, 18 September, Saturday

Time Temperature Precipitation Wind Pressure Humidity
00:00 +17°C° 0.1 mm 5 mps 735 mmHg 84%
01:00 +17°C° 0.1 mm 5 mps 735 mmHg 86%
02:00 +17°C° 0 mm 6 mps 734 mmHg 87%
03:00 +17°C° 0 mm 6 mps 734 mmHg 89%
04:00 +17°C° 0 mm 6 mps 734 mmHg 91%
05:00 +17°C° 0 mm 6 mps 734 mmHg 92%
06:00 +17°C° 0.1 mm 6 mps 733 mmHg 89%
07:00 +17°C° 0.1 mm 6 mps 733 mmHg 86%
08:00 +18°C° 0.1 mm 7 mps 733 mmHg 82%
09:00 +19°C° 0.1 mm 6 mps 733 mmHg 82%
10:00 +19°C° 0.1 mm 6 mps 734 mmHg 81%
11:00 +17°C° 0.1 mm 6 mps 734 mmHg 81%
12:00 +17°C° 0.2 mm 5 mps 734 mmHg 79%
13:00 +17°C° 0.2 mm 5 mps 734 mmHg 76%
14:00 +18°C° 0.2 mm 4 mps 734 mmHg 74%
15:00 +18°C° 0 mm 4 mps 734 mmHg 71%
16:00 +19°C° 0 mm 4 mps 734 mmHg 69%
17:00 +19°C° 0 mm 4 mps 734 mmHg 66%
18:00 +18°C° 0 mm 4 mps 735 mmHg 68%
19:00 +17°C° 0 mm 3 mps 735 mmHg 70%
20:00 +17°C° 0 mm 3 mps 735 mmHg 72%
21:00 +16°C° 0 mm 3 mps 735 mmHg 76%
22:00 +14°C° 0 mm 3 mps 736 mmHg 80%
23:00 +13°C° 0 mm 3 mps 736 mmHg 84%

Tomorrow, 19 September, Sunday

Time Temperature Precipitation Wind Pressure Humidity
00:00 +12°C° 0 mm 3 mps 736 mmHg 87%
01:00 +11°C° 0 mm 3 mps 736 mmHg 91%
02:00 +10°C° 0 mm 2 mps 736 mmHg 94%
03:00 +10°C° 0 mm 2 mps 736 mmHg 95%
04:00 +10°C° 0 mm 2 mps 736 mmHg 95%
05:00 +10°C° 0 mm 2 mps 736 mmHg 95%
06:00 +11°C° 0 mm 3 mps 736 mmHg 89%
07:00 +12°C° 0 mm 3 mps 736 mmHg 83%
08:00 +13°C° 0 mm 3 mps 736 mmHg 77%
09:00 +15°C° 0 mm 4 mps 735 mmHg 71%
10:00 +17°C° 0 mm 4 mps 735 mmHg 65%
11:00 +17°C° 0 mm 5 mps 735 mmHg 59%
12:00 +15°C° 0.3 mm 5 mps 735 mmHg 67%
13:00 +13°C° 0.3 mm 5 mps 735 mmHg 76%
14:00 +9°C° 0.3 mm 5 mps 736 mmHg 85%
15:00 +9°C° 0.1 mm 5 mps 736 mmHg 83%
16:00 +8°C° 0.1 mm 5 mps 736 mmHg 82%
17:00 +7°C° 0.1 mm 5 mps 736 mmHg 81%
18:00 +7°C° 0 mm 5 mps 736 mmHg 81%
19:00 +7°C° 0 mm 5 mps 736 mmHg 81%
20:00 +7°C° 0 mm 5 mps 736 mmHg 81%
21:00 +6°C° 0 mm 5 mps 736 mmHg 81%
22:00 +6°C° 0 mm 5 mps 736 mmHg 81%
23:00 +6°C° 0 mm 5 mps 736 mmHg 81%

Day after tomorrow, 20 September, Monday

Time Temperature Precipitation Wind Pressure Humidity
00:00 +6°C° 0 mm 5 mps 736 mmHg 82%
01:00 +6°C° 0 mm 5 mps 736 mmHg 82%
02:00 +6°C° 0 mm 5 mps 736 mmHg 83%
03:00 +6°C° 0 mm 5 mps 736 mmHg 84%
04:00 +6°C° 0 mm 5 mps 736 mmHg 85%
05:00 +5°C° 0 mm 5 mps 736 mmHg 86%
06:00 +6°C° 0 mm 5 mps 736 mmHg 86%
07:00 +6°C° 0 mm 5 mps 736 mmHg 86%
08:00 +6°C° 0 mm 5 mps 736 mmHg 87%
09:00 +6°C° 0.1 mm 5 mps 736 mmHg 87%
10:00 +7°C° 0.1 mm 6 mps 737 mmHg 87%
11:00 +7°C° 0.1 mm 6 mps 737 mmHg 88%
12:00 +7°C° 0 mm 6 mps 737 mmHg 87%
13:00 +7°C° 0 mm 6 mps 738 mmHg 87%
14:00 +7°C° 0 mm 6 mps 738 mmHg 87%
15:00 +8°C° 0 mm 6 mps 738 mmHg 84%
16:00 +8°C° 0 mm 6 mps 738 mmHg 80%
17:00 +8°C° 0 mm 6 mps 739 mmHg 77%
18:00 +8°C° 0 mm 6 mps 739 mmHg 77%
19:00 +7°C° 0 mm 5 mps 739 mmHg 78%
20:00 +6°C° 0 mm 5 mps 740 mmHg 78%
21:00 +6°C° 0 mm 5 mps 740 mmHg 78%
22:00 +5°C° 0 mm 5 mps 740 mmHg 78%
23:00 +5°C° 0 mm 5 mps 740 mmHg 78%

21 September, Tuesday

Time Temperature Precipitation Wind Pressure Humidity
00:00 +5°C° 0 mm 5 mps 740 mmHg 77%
01:00 +4°C° 0 mm 6 mps 740 mmHg 76%
02:00 +4°C° 0 mm 6 mps 740 mmHg 75%
03:00 +4°C° 0 mm 6 mps 740 mmHg 75%
04:00 +3°C° 0 mm 6 mps 740 mmHg 75%
05:00 +3°C° 0 mm 6 mps 740 mmHg 75%
06:00 +3°C° 0 mm 6 mps 740 mmHg 77%
07:00 +3°C° 0 mm 6 mps 740 mmHg 79%
08:00 +3°C° 0 mm 6 mps 740 mmHg 81%
09:00 +3°C° 0 mm 6 mps 741 mmHg 81%
10:00 +3°C° 0 mm 7 mps 741 mmHg 82%
11:00 +3°C° 0 mm 7 mps 741 mmHg 82%
12:00 +3°C° 0 mm 7 mps 741 mmHg 83%
13:00 +3°C° 0 mm 7 mps 742 mmHg 84%
14:00 +3°C° 0 mm 7 mps 742 mmHg 85%
15:00 +3°C° 0 mm 6 mps 742 mmHg 88%
16:00 +3°C° 0 mm 6 mps 742 mmHg 90%
17:00 +3°C° 0 mm 6 mps 742 mmHg 93%
18:00 +3°C° 0 mm 6 mps 743 mmHg 92%
19:00 +3°C° 0 mm 6 mps 743 mmHg 90%
20:00 +3°C° 0 mm 6 mps 743 mmHg 89%
21:00 +3°C° 0 mm 5 mps 743 mmHg 88%
22:00 +5°C° 0 mm 5 mps 743 mmHg 87%
23:00 +5°C° 0 mm 5 mps 743 mmHg 86%

22 September, Wednesday

Time Temperature Precipitation Wind Pressure Humidity
00:00 +5°C° 0 mm 5 mps 743 mmHg 86%
01:00 +5°C° 0 mm 5 mps 742 mmHg 86%
02:00 +5°C° 0 mm 5 mps 742 mmHg 85%
03:00 +5°C° 0 mm 5 mps 742 mmHg 84%
04:00 +5°C° 0 mm 5 mps 742 mmHg 83%
05:00 +5°C° 0 mm 5 mps 742 mmHg 82%
06:00 +5°C° 0 mm 5 mps 742 mmHg 79%
07:00 +6°C° 0 mm 4 mps 742 mmHg 76%
08:00 +6°C° 0 mm 4 mps 742 mmHg 73%
09:00 +7°C° 0 mm 5 mps 741 mmHg 63%
10:00 +9°C° 0 mm 5 mps 741 mmHg 54%
11:00 +10°C° 0 mm 6 mps 741 mmHg 45%
12:00 +10°C° 0 mm 6 mps 741 mmHg 45%
13:00 +10°C° 0 mm 6 mps 740 mmHg 45%
14:00 +10°C° 0 mm 6 mps 740 mmHg 44%
15:00 +9°C° 0 mm 6 mps 740 mmHg 55%
16:00 +7°C° 0 mm 6 mps 741 mmHg 66%
17:00 +6°C° 0 mm 5 mps 741 mmHg 78%
18:00 +5°C° 0 mm 5 mps 741 mmHg 79%
19:00 +5°C° 0 mm 4 mps 741 mmHg 81%
20:00 +4°C° 0 mm 3 mps 741 mmHg 83%
21:00 +4°C° 0 mm 3 mps 741 mmHg 86%
22:00 +4°C° 0 mm 3 mps 740 mmHg 88%
23:00 +4°C° 0 mm 3 mps 740 mmHg 91%

23 September, Thursday

Time Temperature Precipitation Wind Pressure Humidity
00:00 +4°C° 0.1 mm 3 mps 740 mmHg 90%
01:00 +4°C° 0.1 mm 3 mps 740 mmHg 90%
02:00 +4°C° 0.1 mm 3 mps 740 mmHg 90%
03:00 +5°C° 0.1 mm 2 mps 740 mmHg 89%
04:00 +5°C° 0.1 mm 2 mps 739 mmHg 89%
05:00 +5°C° 0.1 mm 2 mps 739 mmHg 89%
06:00 +6°C° 0.1 mm 2 mps 739 mmHg 87%
07:00 +6°C° 0.1 mm 2 mps 739 mmHg 86%
08:00 +6°C° 0.1 mm 2 mps 739 mmHg 84%
09:00 +7°C° 0.1 mm 2 mps 739 mmHg 81%
10:00 +7°C° 0.1 mm 2 mps 739 mmHg 78%
11:00 +7°C° 0.1 mm 2 mps 739 mmHg 74%
12:00 +8°C° 0 mm 2 mps 739 mmHg 72%
13:00 +8°C° 0 mm 2 mps 739 mmHg 69%
14:00 +8°C° 0 mm 2 mps 739 mmHg 67%
15:00 +8°C° 0 mm 2 mps 739 mmHg 68%
16:00 +8°C° 0 mm 2 mps 739 mmHg 69%
17:00 +8°C° 0 mm 2 mps 739 mmHg 70%
18:00 +7°C° 0 mm 2 mps 739 mmHg 73%
19:00 +7°C° 0 mm 2 mps 739 mmHg 76%
20:00 +6°C° 0 mm 2 mps 739 mmHg 79%
21:00 +6°C° 0 mm 2 mps 739 mmHg 80%
22:00 +6°C° 0 mm 2 mps 738 mmHg 82%
23:00 +5°C° 0 mm 2 mps 738 mmHg 83%
Show more

We Need Your Consent

Meteoprog and our Service Providers may store and access personal data such as cookies, device identifiers or other similar technologies on your device and process such data to personalise content and ads, as well as provide social media features and to analyse the traffic.

  • Store and/or access information on your device

    Cookies, device identifiers or other information can be stored or accessed on your device for the purposes indicated above.

  • Personalised ads and content, ad and content measurement, audience insights, and products development

    Ads and content can be personalised based on a profile. More data can be added to better personalise ads and content. Ad and content performance can be measured. Insights about the audience who saw the ads and content can be derived. Such data can be used to develop or improve user’s experience, systems and software.

By clicking ‘I Agree’ you will allow the use of indicated cookies, device identifiers, web beacons or other similar technologies. Your settings can be changed in the browser on your device.

For certain purposes, legitimate interests may be relied on, rather than consent. You can read more about this in our Privacy and Cookie Policy.